Probability
0 0 0 0 0 0 0 0 0 0 0 0 0 0 0 0 0 0 0 0 0 0 0 0 0 0 0 0 0 0 0 0 0 0 0 0 0 0 0 0 0 0 0
0 0 0 0 0 0 0 0 0 0 0 0 0 0 0 0 0 0 0 0 0 0 0 0 0 0 0 0 0 0 0 0 0 0 0 0 0 0 0 0 0 0 0
0 0 0 0 0 0 0 0 0 0 0 0 0 0 0 0 0 0 0 0 0 0 0 0 0 0 0 0 0 0 0 0 0 0 0 0 0 0 0 0 0 0 0
0 0 0 0 0 0 0 0 0 0 0 0 0 0 0 0 0 0 0 0 0 0 0 0 0 0 0 0 0 0 0 0 0 0 0 0 0 0 0 0 0 0 0
0 0 0 0 0 0 0 0 0 0 0 0 0 0 0 0 0 0 0 0 0 0 0 0 0 0 0 0 0 0 0 0 0 0 0 0 0 0 0 0 0 0 0
0 0 0 0 0 0 0 0 0 0 0 0 0 0 0 0 0 0 0 0 0 0 0 0 0 0 0 0 0 0 0 0 0 0 0 0 0 0 0 0 0 0 0
0 0 0 0 0 0 0 0 0 0 0 0 0 0 0 0 0 0 0 0 0 0 0 0 0 0 0 0 0 0 0 0 0 0 0 0 0 0 0 0 0 0 0
0 0 0 0 0 0 0 0 0 0 0 0 0 0 0 0 0 0 0 0 0 0 0 0 0 0 0 0 0 0 0 0 0 0 0 0 0 0 0 0 0 0 0
0 0 0 0 0 0 0 0 0 0 0 0 0 0 0 0 0 0 0 0 0 0 0 0 0 0 0 0 0 0 0 0 0 0 0 0 0 0 0 0 0 0 0
0 0 0 0 0 0 0 0 0 0 0 0 0 0 0 0 0 0 0 0 0 0 0 0 0 0 0 0 0 0 0 0 0 0 0 0 0 0 0 0 0 0 0
0 0 0 0 0 0 0 0 0 0 0 0 0 0 0 0 0 0 0 0 0 0 0 0 0 0 0 0 0 0 0 0 0 0 0 0 0 0 0 0 0 0 0
0 0 0 0 0 0 0 0 0 0 0 0 0 0 0 0 0 0 0 0 0 0 0 0 0 0 0 0 0 0 0 0 0 0 0 0 0 0 0 0 0 0 0
0 0 0 0 0 0 0 0 0 0 0 0 0 0 0 0 0 0 0 0 0 0 0 0 0 0 0 0 0 0 0 0 0 0 0 0 0 0 0 0 0 0 0
0 0 0 0 0 0 0 0 0 0 0 0 0 0 0 0 0 0 0 0 0 0 0 0 0 0 0 0 0 0 0 0 0 0 0 0 0 0 0 0 0 0 0
0 0 0 0 0 0 0 0 0 0 0 0 0 0 0 0 0 0 0 0 0 0 0 0 0 0 0 0 0 0 0 0 0 0 0 0 0 0 0 0 0 0 0
0 0 0 0 0 0 0 0 0 0 0 0 0 0 0 0 0 0 0 0 0 0 0 0 0 0 0 0 0 0 0 0 0 0 0 0 0 0 0 0 0 0 0
0 0 0 0 0 0 0 0 0 0 0 0 0 0 0 0 0 0 0 0 0 0 0 0 0 0 0 0 0 0 0 0 0 0 0 0 0 0 0 0 0 0 0
0 0 0 0 0 0 0 0 0 0 0 0 0 0 0 0 0 0 0 0 0 0 0 0 0 0 0 0 0 0 0 0 0 0 0 0 0 0 0 0 0 0 0
0 0 0 0 0 0 0 0 0 0 0 0 0 0 0 0 0 0 0 0 0 0 0 0 0 0 0 0 0 0 0 0 0 0 0 0 0 0 0 0 0 0 0
0 0 0 0 0 0 0 0 0 0 0 0 0 0 0 0 0 0 0 0 0 0 0 0 0 0 0 0 0 0 0 0 0 0 0 0 0 0 0 0 0 0 0
0 0 0 0 0 0 0 0 0 0 0 0 0 0 0 0 0 0 0 0 0 0 0 0 0 0 0 0 0 0 0 0 0 0 0 0 0 0 0 0 0 0 0
0 0 0 0 0 0 0 0 0 0 0 0 0 0 0 0 0 0 0 0 0 0 0 0 0 0 0 0 0 0 0 0 0 0 0 0 0 0 0 0 0 0 0
0 0 0 0 0 0 0 0 0 0 0 0 0 0 0 0 0 0 0 0 0 0 0 0 0 0 0 0 0 0 0 0 0 0 0 0 0 0 0 0 0 0 0
0 0 0 0 0 0 0 0 0 0 0 0 0 0 0 0 0 0 0 0 0 0 0 0 0 0 0 0 0 0 0 0 0 0 0 0 0 0 0 0 0 0 0
0 0 0 0 0 0 0 0 0 0 0 0 0 0 0 0 0 0 0 0 0 0 0 0 0 0 0 0 0 0 0 0 0 0 0 0 0 0 0 0 0 0 0
0 0 0 0 0 0 0 0 0 0 0 0 0 0 0 0 0 0 0 0 0 0 0 0 0 0 0 0 0 0 0 0 0 0 0 0 0 0 0 0 0 0 0
Wind_Speed
10 6 5 5 4 4 5 7 9 10 11 10 8 8 7 6 6 6 9 9 9 9 8 7 6 5 6 5 5 3 5 5 5 4 6 5 2 2 0 1 1 1 3
8 6 6 5 5 5 6 7 9 10 9 7 6 5 7 6 6 6 8 8 9 8 8 7 6 5 5 6 6 5 3 4 5 4 3 6 7 5 3 3 2 4 5
13 9 8 7 6 6 7 8 9 9 9 10 10 11 7 6 5 6 6 7 8 9 8 8 6 6 5 5 5 5 4 3 3 3 3 3 4 5 5 5 4 4 4
13 10 9 9 8 7 6 8 8 9 10 11 14 16 10 8 6 6 6 7 7 8 8 7 7 6 5 5 5 4 3 3 2 2 2 1 3 3 6 4 3 4 6
13 12 12 12 9 8 8 8 9 9 9 8 12 13 10 9 9 8 9 8 6 7 7 7 6 6 5 5 5 4 4 2 2 1 1 2 2 2 3 7 6 6 4
12 11 10 9 8 8 8 9 11 9 8 9 9 14 17 16 14 10 9 6 5 5 7 7 6 5 4 4 4 3 3 2 1 0 1 1 1 2 3 6 10 11 6
10 10 12 14 13 13 11 10 12 10 9 10 10 12 15 15 14 11 9 7 5 4 5 5 5 4 4 4 3 3 2 1 0 1 2 2 3 3 3 6 11 12 7
9 12 15 16 16 15 14 13 13 11 10 11 11 11 12 9 8 8 8 7 5 5 5 5 5 4 4 3 3 2 1 1 2 3 3 3 3 3 3 4 8 13 7
10 12 13 14 15 15 14 14 14 12 12 12 12 11 10 10 10 9 8 6 5 5 6 5 5 4 3 3 2 1 2 2 3 4 4 4 4 4 4 4 5 7 14
10 11 12 12 12 12 12 12 13 14 13 12 11 10 10 10 10 9 9 7 6 6 5 5 4 3 3 2 2 2 3 3 3 3 4 5 4 4 4 5 5 7 11
13 13 12 11 12 12 13 13 13 14 13 12 12 12 11 10 10 9 8 7 6 6 5 4 3 2 2 2 2 3 4 4 5 5 5 6 6 5 5 5 6 7 9
10 11 12 13 13 13 13 13 13 13 12 12 13 12 11 10 9 8 7 7 6 5 5 4 3 2 2 3 3 4 4 5 6 6 6 7 6 6 6 6 8 8 9
11 11 12 12 13 13 13 12 12 13 12 12 13 12 10 10 9 8 7 6 6 5 4 3 3 2 3 3 3 4 5 5 5 6 6 7 7 8 7 8 9 9 10
11 11 11 10 11 12 12 12 11 12 12 12 12 11 9 9 8 7 7 6 6 5 4 2 2 2 3 4 5 5 5 5 5 5 6 7 8 9 10 9 9 9 10
12 11 11 11 11 12 12 12 12 11 12 12 11 10 8 8 8 7 6 6 5 4 3 2 2 3 3 4 6 4 4 4 5 6 7 8 13 16 14 12 10 10 11
12 11 12 12 12 13 13 13 12 10 11 12 11 9 9 8 7 7 6 5 4 3 2 2 3 4 4 10 14 10 4 4 5 7 7 9 11 15 21 25 24 22 17
12 12 12 12 12 12 13 13 11 11 11 11 10 9 8 8 7 6 6 5 3 2 2 2 3 4 7 12 14 15 7 4 6 8 8 9 11 17 11 18 23 19 22
12 11 11 11 11 10 12 12 11 11 11 10 9 8 8 8 6 6 5 3 2 2 1 3 4 4 7 13 15 17 7 5 7 8 9 10 10 12 17 15 13 10 11
10 10 11 12 12 13 13 14 11 10 10 10 9 8 8 7 6 5 4 2 1 2 2 3 4 5 7 13 16 17 5 6 8 8 8 11 10 20 26 16 13 13 12
11 12 13 14 13 12 13 14 12 11 10 9 8 7 7 7 6 4 3 2 1 2 3 4 4 5 6 12 17 18 5 6 7 6 7 14 19 24 26 14 10 13 14
13 14 14 12 11 12 13 13 12 10 9 9 9 8 7 6 5 4 2 2 1 2 3 5 5 6 7 11 17 19 8 7 8 7 6 8 23 26 26 21 10 17 19
13 14 13 11 9 10 13 13 11 9 10 10 9 7 6 5 4 4 2 2 2 3 4 4 6 5 6 10 14 19 18 17 9 9 7 10 24 25 24 17 19 24 19
12 11 14 13 9 8 11 15 9 10 11 10 8 7 6 5 4 3 2 2 2 2 4 4 5 5 5 7 17 19 20 21 12 9 19 23 24 21 14 18 22 17 9
11 12 14 14 11 9 10 12 10 10 10 9 7 5 5 4 3 2 2 2 2 3 4 5 5 6 5 6 6 6 8 13 12 10 13 19 19 16 16 15 12 9 9
10 10 13 14 12 11 11 9 9 10 10 8 6 5 4 3 2 2 2 3 3 4 6 4 4 6 6 9 19 14 9 9 10 12 6 6 8 9 9 9 9 8 9
11 13 14 14 12 11 10 8 7 8 9 6 5 3 2 2 2 2 4 6 7 11 13 13 12 9 14 20 20 20 21 21 21 13 7 8 9 9 10 11 11 10 10
Wind_Direction
252 246 226 196 175 169 155 146 141 143 142 140 134 126 115 107 94 90 96 101 104 101 97 96 84 75 74 64 49 52 40 22 1 3 339 334 353 353 117 21 334 358 9
253 231 201 183 182 176 162 149 150 151 149 140 124 115 114 104 93 92 89 94 100 99 96 95 90 82 81 65 50 49 51 24 25 34 5 345 338 340 342 341 347 5 10
240 229 204 196 186 183 172 159 153 145 135 129 119 113 103 101 100 97 90 86 93 92 95 93 91 81 80 75 63 56 66 34 13 41 60 16 309 309 312 318 338 354 355
229 218 196 192 189 182 161 148 144 140 141 142 142 143 141 134 127 123 112 97 89 91 90 89 87 82 77 75 66 65 67 71 30 4 32 223 235 291 309 303 309 324 317
221 209 195 188 174 157 150 142 136 138 143 144 146 135 123 117 121 118 110 99 85 83 86 85 83 79 76 76 69 65 62 78 90 20 328 318 295 243 270 293 305 304 283
218 202 179 157 147 144 142 141 139 138 136 134 136 135 132 133 133 127 118 105 94 82 80 82 79 78 75 72 69 66 63 68 85 157 237 237 268 284 276 286 304 305 297
206 180 165 162 159 157 153 148 144 138 133 129 128 133 135 136 135 133 127 120 107 92 83 84 81 75 73 74 68 57 36 25 309 272 251 233 233 238 258 289 304 302 293
194 181 175 170 166 162 156 151 146 139 132 127 122 121 123 121 121 120 120 114 110 107 102 93 85 77 68 64 53 35 334 295 279 272 262 252 251 243 252 275 304 310 298
191 181 174 169 165 161 157 152 144 136 130 127 123 117 115 116 117 112 106 106 107 108 100 92 83 69 56 42 23 333 304 296 273 269 266 255 253 250 253 258 268 291 304
182 172 169 164 157 150 140 137 138 134 129 127 126 120 114 113 115 112 108 106 103 100 99 87 78 60 38 12 347 308 300 302 290 274 270 266 258 256 254 254 257 258 279
176 168 158 146 138 134 135 133 131 129 127 123 119 117 114 112 109 108 108 108 104 101 95 89 75 51 21 351 335 313 307 307 299 295 284 275 271 266 262 258 259 262 267
155 147 141 137 138 138 135 133 133 129 126 122 118 116 115 112 109 109 108 107 104 98 95 88 71 34 2 339 326 312 311 301 297 295 293 287 289 277 271 267 266 269 266
133 133 136 140 141 138 133 131 129 126 123 121 118 116 115 114 113 113 111 108 105 97 88 80 58 13 341 324 307 295 294 293 291 294 294 289 287 283 278 275 275 274 279
140 140 140 137 136 132 131 128 124 125 124 120 119 119 119 118 117 115 112 108 107 100 88 72 38 354 324 305 295 293 292 293 295 294 288 284 282 280 281 283 277 285 290
152 150 144 138 133 129 127 126 125 124 124 121 119 120 118 116 114 112 109 105 99 95 83 55 14 342 313 301 305 295 290 292 293 290 284 284 297 301 302 304 304 300 295
161 152 145 142 141 138 135 131 128 126 124 121 122 123 120 116 114 112 109 103 94 82 57 26 350 332 322 319 324 325 295 284 289 294 291 289 295 299 310 311 307 303 302
163 156 153 149 144 142 139 135 130 125 121 121 124 124 120 116 114 112 104 98 91 66 25 350 333 317 310 323 326 323 321 292 287 289 292 300 302 310 296 296 300 303 304
158 151 143 136 131 127 126 123 124 123 122 122 123 122 118 114 111 104 99 93 85 42 355 326 320 314 315 329 325 321 323 289 281 280 283 288 291 295 303 302 306 299 297
142 137 133 132 130 131 132 127 122 121 122 124 123 121 119 116 111 104 97 89 59 9 328 312 318 317 314 325 323 325 300 285 285 284 287 299 297 303 312 315 308 305 303
124 124 124 126 128 132 132 127 126 125 126 124 118 113 112 113 111 108 100 78 46 334 321 317 314 307 301 314 325 325 298 292 293 288 284 304 311 312 318 318 312 312 309
114 118 121 124 129 133 128 125 124 123 120 114 108 103 105 109 110 102 89 65 18 345 334 319 312 303 304 318 324 323 320 306 308 310 304 299 314 318 322 324 316 307 314
108 113 113 111 115 124 124 118 115 114 111 107 104 102 99 99 101 94 77 52 15 349 331 319 312 296 295 313 318 323 323 322 315 311 306 307 318 324 325 324 315 319 327
103 106 112 108 97 101 118 116 115 114 109 104 103 103 96 83 81 77 49 19 0 337 314 305 299 299 295 304 318 321 322 324 321 308 314 320 324 328 325 317 321 328 322
104 111 110 106 95 88 96 109 113 111 108 107 105 100 95 81 59 42 15 355 327 311 300 295 297 300 301 298 295 293 309 319 318 311 314 324 325 323 318 319 320 316 309
102 104 106 104 101 98 96 100 107 109 106 103 100 92 83 75 40 9 328 315 274 276 304 293 290 308 306 310 322 328 321 321 317 325 325 322 321 321 319 316 315 314 315
102 100 101 102 102 100 95 91 97 107 109 104 94 85 75 53 26 350 327 319 318 323 325 325 324 316 317 322 327 329 329 330 330 335 326 320 318 317 317 317 316 315 313